Location: Newark
(27.9675°N, 86.8869°E)
Time: 10:17:56
(UTC+00:00)

A-11 Canister half - Pass Details

Date: 27 October 2019
Orbit: 1527 x 1682 km, 47.3° (Epoch: 12 November)

Event Time Altitude Azimuth Distance (km) Brightness Sun altitude
Rises 14:56:41 0° 296° (WNW) 4,729 12.3 -45.6°
Reaches altitude 10° 15:00:47 10° 311° (NW) 3,725 11.5 -46.4°
Enters shadow 15:06:06 21° 345° (NNW) 2,902 10.5 -47.6°
